[[{"header":{"parameterUnit":"m.s-1","parameterCategory":2,"la1":30.2991,"la2":30.254,"lo1":-89.0895,"lo2":-89.0444,"dy":0.0017,"dx":0.0017,"nx":28,"ny":28,"refTime":"2024-04-24T09:00:00:Z","depth":"0","parameterNumber":2,"parameterNumberName":"U-component_of_CURRENTS"},"data":[0,0,0,0,0,0,0,0,0,0,0,0,0,0,0,0,0,0,0,0,0,0,0,0,0,0,0,0,0,0,0,0,0,0,0,0,0,0,0,0,0,0,0,0,0,0,0,0,0,0,0,0,0,0,0,0,0,0,0.3515,0.3516,0,0.3548,0.3548,0.3549,0.3543,0.3543,0.3543,0.3542,0.3558,0.3559,0.3559,0,0,0,0,0,0,0,0,0,0,0,0,0,0.3447,0.3448,0.3515,0.3516,0.3516,0.3548,0.3548,0.3549,0.3543,0.3543,0.3543,0.3542,0.3558,0.3558,0.3559,0,0,0,0,0,0,0,0,0,0,0,0,0,0.3476,0.3449,0.3515,0.3519,0.352,0.3548,0.3548,0.3549,0.3543,0.3543,0.3542,0.3542,0.3557,0.3558,0.356,0.3577,0,0,0.3563,0.3563,0,0,0,0,0,0,0,0,0.3474,0.3478,0.3518,0.3519,0.352,0.3543,0.353,0.3558,0.3544,0.3532,0.3542,0.3542,0.3553,0.3555,0.3559,0.3578,0.3578,0.3563,0.3564,0.3564,0.3565,0,0,0,0,0,0,0,0.3472,0.3477,0.3526,0.3519,0.352,0.352,0.3523,0.3536,0.3543,0.3533,0.3533,0.3541,0.3553,0.3558,0.3559,0.3579,0.3563,0.3564,0.3565,0.3565,0.3663,0.3664,0,0,0,0,0,0,0.3474,0.3475,0.3525,0.3527,0.3498,0.3522,0.3525,0.3534,0.3543,0.3545,0.3541,0.3541,0.3556,0.3558,0.356,0.3627,0.3564,0.3565,0.3566,0.3661,0.3663,0.3665,0,0,0,0,0,0,0.3472,0.3478,0.3523,0.3503,0.3509,0.3524,0.3534,0.3535,0.3546,0.355,0.3551,0.3552,0.3556,0.3558,0.3581,0.3626,0.3566,0.3567,0.3658,0.3661,0.3664,0.3733,0,0,0,0,0,0,0.347,0.3477,0.3485,0.3504,0.3511,0.3551,0.3535,0.3536,0.3553,0.3552,0.356,0.356,0.3556,0.358,0.3583,0.3627,0.3568,0.3656,0.366,0.3663,0.3728,0.3738,0.3746,0,0,0,0,0,0.3468,0.3489,0.3485,0.3491,0.3521,0.3552,0.3556,0.3562,0.3554,0.3567,0.3571,0.356,0.3605,0.3582,0.3585,0.363,0.3654,0.3659,0.3663,0.3724,0.3736,0.3746,0,0,0,0,0,0,0.3474,0.3492,0.3487,0.3515,0.3534,0.3552,0.357,0.3569,0.3582,0.3584,0.3576,0.3578,0.3619,0.3614,0.3588,0.367,0.3632,0.3637,0.3678,0.3689,0.3697,0.3716,0.3569,0,0,0,0,0,0.3476,0.3492,0.351,0.3534,0.3545,0.3556,0.3569,0.3575,0.359,0.3595,0.3597,0.3611,0.364,0.3653,0.3669,0.3708,0.3766,0.3742,0.3751,0.3759,0.3777,0.3911,0.3934,0.3679,0.3679,0.3679,0,0,0.3484,0.3499,0.3507,0.3535,0.355,0.3581,0.3563,0.3594,0.3623,0.3596,0.3632,0.3639,0.3656,0.3703,0.3722,0.3704,0.3865,0.3764,0.377,0.3785,0.3918,0.3943,0.3966,0.3682,0.3682,0.3681,0,0,0.3513,0.3524,0.3544,0.3565,0.3594,0.3607,0.3618,0.3639,0.3651,0.3682,0.3683,0.3718,0.3738,0.3774,0.3792,0.3862,0.3906,0.3865,0.3928,0.4058,0.4081,0.4102,0.4225,0.4256,0.3872,0.3872,0.3872,0,0.3522,0.355,0.3557,0.3588,0.3615,0.3621,0.3658,0.368,0.3705,0.3737,0.3703,0.379,0.3782,0.3883,0.3892,0.3885,0.3965,0.3884,0.4073,0.4094,0.4114,0.4236,0.4269,0.3876,0.3875,0.3875,0.3875,0,0.3562,0.359,0.3612,0.3649,0.368,0.3717,0.3748,0.3782,0.3791,0.3816,0.3899,0.3903,0.3964,0.3965,0.3938,0.4082,0.4096,0.4069,0.4048,0.4145,0.4266,0.43,0.3881,0.388,0.3879,0.3878,0,0,0.3568,0.3624,0.3631,0.3664,0.3717,0.3751,0.3816,0.3884,0.3955,0.3972,0.407,0.4096,0.411,0.4133,0.413,0.4215,0.44,0.4196,0.4201,0.4324,0.4709,0.4596,0.4621,0.4417,0.4423,0.4427,0.4743,0,0.3596,0.3656,0.3682,0.3758,0.3797,0.3842,0.3911,0.3979,0.4031,0.4125,0.4165,0.4247,0.4176,0.4218,0.4297,0.4374,0.449,0.4318,0.4592,0.4601,0.4493,0.4656,0.4344,0.4587,0.4776,0.4781,0.4785,0,0.362,0.3663,0.3728,0.3827,0.3851,0.3902,0.4034,0.4098,0.4231,0.4277,0.4374,0.4408,0.4534,0.4451,0.4681,0.4581,0.4658,0.471,0.4723,0.4616,0.455,0.4518,0.4641,0.4468,0.4837,0.4833,0.4829,0,0.3616,0.3699,0.3752,0.3783,0.3891,0.3947,0.4016,0.4146,0.4239,0.4392,0.4488,0.4621,0.4721,0.4835,0.4905,0.483,0.516,0.5078,0.5069,0.5063,0.4848,0.4811,0.4834,0.5283,0.5282,0.5281,0.528,0,0.3637,0.3686,0.3756,0.3793,0.3892,0.3964,0.4101,0.4188,0.4352,0.449,0.4572,0.4719,0.4824,0.4993,0.5028,0.5164,0.5285,0.5132,0.5154,0.486,0.4823,0.4698,0.4638,0.5293,0.529,0.5288,0.5286,0,0.3632,0.3671,0.3745,0.3851,0.3891,0.3965,0.414,0.425,0.4401,0.4592,0.4654,0.4866,0.5071,0.5176,0.5388,0.534,0.5295,0.548,0.5117,0.5087,0.4828,0.4784,0.4761,0.4638,0.5525,0.5524,0.5524,0,0.3632,0.3665,0.377,0.3825,0.3875,0.3995,0.4092,0.4251,0.4375,0.4677,0.4776,0.5036,0.5171,0.5438,0.5396,0.5488,0.5337,0.527,0.504,0.4818,0.4789,0.4622,0.4508,0.4809,0.4803,0.4798,0.4794,0,0.3649,0.3679,0.3745,0.384,0.3931,0.4042,0.4186,0.4284,0.4491,0.4642,0.4875,0.5009,0.5219,0.5141,0.5233,0.5238,0.4945,0.5164,0.5039,0.433,0.4051,0.3937,0.4611,0.4747,0.4752,0.4755,0.4758,0.4759,0.366,0.3705,0.3783,0.3867,0.3967,0.4069,0.4111,0.426,0.4412,0.4558,0.48,0.4854,0.4844,0.4889,0.4882,0.4598,0.4676,0.4391,0.4401,0.4288,0.4005,0.4574,0.4648,0.4652,0.4655,0.4658,0.4661,0,0.3681,0.3739,0.3813,0.3902,0.3957,0.4027,0.4157,0.4146,0.4226,0.4352,0.4471,0.4371,0.426,0.4224,0.4005,0.3829,0.365,0.3725,0.3397,0.336,0.3955,0.3748,0.3497,0.3498,0.3498,0.3498,0.3498,0.3498,0.3703,0.3767,0.3791,0.3857,0.3907,0.3901,0.3925,0.39,0.3926,0.3829,0.3712,0.374,0.3751,0.36,0.3343,0.3253,0.3024,0.2841,0.2963,0.332,0.3379,0.3436,0.3225,0.2869,0.2869,0.2129,0.2123,0.2119]},{"header":{"parameterUnit":"m.s-1","parameterCategory":2,"la1":30.2991,"la2":30.254,"lo1":-89.0895,"lo2":-89.0444,"dy":0.0017,"dx":0.0017,"nx":28,"ny":28,"refTime":"2024-04-24T09:00:00:Z","depth":"0","parameterNumber":3,"parameterNumberName":"V-component_of_CURRENTS"},"data":[0,0,0,0,0,0,0,0,0,0,0,0,0,0,0,0,0,0,0,0,0,0,0,0,0,0,0,0,0,0,0,0,0,0,0,0,0,0,0,0,0,0,0,0,0,0,0,0,0,0,0,0,0,0,0,0,0,0,0.0303,0.0303,0,0.0235,0.0234,0.0233,0.0185,0.0184,0.0184,0.0184,0.0103,0.0101,0.0099,0,0,0,0,0,0,0,0,0,0,0,0,0,0.0328,0.0328,0.0303,0.0303,0.0302,0.0235,0.0234,0.0233,0.0185,0.0184,0.0184,0.0184,0.0104,0.0101,0.0099,0,0,0,0,0,0,0,0,0,0,0,0,0,0.0293,0.0328,0.0303,0.0272,0.0268,0.0235,0.0234,0.0232,0.0185,0.0184,0.0184,0.0184,0.0105,0.0102,0.0099,0.0085,0,0,0.009,0.0088,0,0,0,0,0,0,0,0,0.0295,0.0291,0.0277,0.0274,0.027,0.022,0.0213,0.0183,0.0185,0.0214,0.0184,0.0184,0.0143,0.0137,0.0121,0.0082,0.0078,0.0089,0.0088,0.0086,0.0085,0,0,0,0,0,0,0,0.0297,0.0294,0.0274,0.0276,0.0272,0.0239,0.0234,0.0207,0.0179,0.0211,0.0208,0.0204,0.014,0.0124,0.0119,0.0077,0.0089,0.0087,0.0085,0.0084,0.004,0.004,0,0,0,0,0,0,0.0314,0.0297,0.0276,0.0272,0.0285,0.0239,0.0234,0.0234,0.0179,0.0171,0.0205,0.0203,0.0129,0.0123,0.0116,0.0125,0.0086,0.0083,0.0082,0.0039,0.004,0.004,0,0,0,0,0,0,0.0315,0.0313,0.0279,0.0284,0.0278,0.024,0.0241,0.0233,0.0223,0.0175,0.0166,0.0203,0.0129,0.012,0.0099,0.0121,0.0082,0.0079,0.0038,0.0039,0.004,0.0125,0,0,0,0,0,0,0.0316,0.0314,0.0319,0.0286,0.0278,0.0272,0.0241,0.0232,0.0222,0.0218,0.017,0.0162,0.0128,0.0104,0.0097,0.0116,0.0077,0.0038,0.0039,0.004,0.0122,0.0129,0.0135,0,0,0,0,0,0.0317,0.0333,0.0319,0.0317,0.0287,0.0273,0.0267,0.0236,0.0222,0.0224,0.019,0.0164,0.0106,0.0102,0.0093,0.0112,0.0037,0.0038,0.004,0.0119,0.0128,0.0135,0,0,0,0,0,0,0.0345,0.0329,0.0313,0.0322,0.0303,0.0266,0.0266,0.0245,0.0218,0.0215,0.0168,0.0158,0.0145,0.0117,0.0114,0.0102,0.0069,0.0069,0.0132,0.014,0.0147,0.0177,0.0075,0,0,0,0,0,0.0354,0.0362,0.0336,0.0343,0.0338,0.0302,0.0293,0.0274,0.0247,0.0235,0.0202,0.0168,0.0142,0.0133,0.01,0.0097,0.0099,0.0104,0.0111,0.0117,0.0135,0.0157,0.0169,0.0045,0.0045,0.0045,0,0,0.0365,0.0359,0.0361,0.0349,0.0331,0.0336,0.0296,0.0291,0.0297,0.0231,0.0228,0.0186,0.0144,0.0136,0.0129,0.0118,0.0154,0.0118,0.0124,0.0139,0.016,0.0173,0.0183,0.0046,0.0046,0.0046,0,0,0.0399,0.0388,0.0406,0.0399,0.0384,0.0364,0.0368,0.0338,0.0328,0.0314,0.0271,0.0251,0.0205,0.0188,0.0171,0.0199,0.0183,0.0183,0.025,0.0272,0.0283,0.0293,0.0322,0.0333,0.0195,0.0195,0.0195,0,0.0414,0.0434,0.0408,0.0425,0.0431,0.0384,0.0408,0.039,0.0357,0.0363,0.0326,0.0284,0.0236,0.0249,0.0246,0.0217,0.0228,0.0224,0.0284,0.0294,0.0302,0.0329,0.0341,0.0199,0.0199,0.0198,0.0198,0,0.046,0.0476,0.0489,0.0497,0.0497,0.0511,0.0488,0.0488,0.0464,0.0446,0.0446,0.0385,0.0372,0.0343,0.0294,0.0333,0.0321,0.0286,0.027,0.032,0.0345,0.0355,0.0205,0.0204,0.0202,0.0201,0,0,0.0502,0.052,0.0526,0.0552,0.0542,0.0555,0.0569,0.0579,0.0616,0.0564,0.0616,0.0538,0.0513,0.0492,0.0441,0.0442,0.0491,0.0391,0.039,0.0433,0.0554,0.0501,0.0507,0.0469,0.0471,0.0473,0.0551,0,0.055,0.0608,0.0598,0.0655,0.0686,0.0664,0.0693,0.0695,0.0686,0.072,0.0668,0.0683,0.0571,0.058,0.056,0.0515,0.0522,0.0474,0.0488,0.0489,0.0446,0.0519,0.0481,0.0543,0.0561,0.0563,0.0564,0,0.0606,0.0639,0.0708,0.0762,0.0775,0.0803,0.0862,0.0881,0.0901,0.0901,0.0899,0.0861,0.0858,0.0756,0.0722,0.07,0.0635,0.0587,0.0589,0.052,0.0456,0.0492,0.0562,0.038,0.058,0.0579,0.0578,0,0.0672,0.0723,0.0788,0.0804,0.0849,0.0889,0.0916,0.0943,0.0994,0.1035,0.1091,0.1053,0.1086,0.099,0.0867,0.081,0.0837,0.0753,0.065,0.0646,0.0606,0.0595,0.0513,0.0739,0.0739,0.0739,0.0739,0,0.0741,0.0795,0.0831,0.0872,0.0968,0.0972,0.1077,0.1098,0.1164,0.127,0.1203,0.13,0.1147,0.1128,0.0968,0.0863,0.0925,0.0689,0.0671,0.0633,0.0623,0.0454,0.036,0.0742,0.0741,0.074,0.074,0,0.081,0.083,0.0912,0.0975,0.1006,0.1077,0.1181,0.1257,0.1314,0.1461,0.1494,0.1523,0.1513,0.1344,0.1231,0.1034,0.0807,0.0849,0.0815,0.0789,0.047,0.0383,0.0308,0.0248,0.0748,0.0747,0.0746,0,0.0853,0.0903,0.099,0.1047,0.1083,0.1184,0.1261,0.1327,0.1423,0.1615,0.1708,0.1759,0.1828,0.1637,0.1309,0.1055,0.0856,0.081,0.0666,0.0473,0.0364,0.0292,0.0242,0.066,0.0659,0.0658,0.0657,0,0.0934,0.0962,0.1019,0.1134,0.1224,0.1338,0.146,0.1563,0.1687,0.1849,0.2075,0.2162,0.1994,0.1744,0.1358,0.1136,0.0669,0.0778,0.0598,0.0312,0.0214,0.0141,0.059,0.0647,0.0648,0.0649,0.065,0.065,0.0986,0.1037,0.1111,0.1223,0.1331,0.1489,0.1608,0.1767,0.1981,0.2251,0.2327,0.2496,0.2079,0.1566,0.1258,0.0606,0.0636,0.0366,0.0291,0.0247,0.0137,0.0562,0.0571,0.0572,0.0572,0.0573,0.0573,0,0.104,0.1097,0.1198,0.1334,0.1468,0.1521,0.1736,0.1885,0.2165,0.2418,0.2634,0.2495,0.1999,0.1442,0.0576,0.0168,0.0036,-0.0047,-0.0164,-0.0182,0.0217,0.0155,0.005,0.005,0.005,0.0051,0.0051,0.0051,0.1069,0.116,0.1211,0.1427,0.1537,0.1737,0.1874,0.2117,0.2323,0.2616,0.27,0.2725,0.2237,0.0849,-0.0093,-0.0291,-0.0516,-0.0581,-0.0655,-0.0423,-0.0391,-0.0361,-0.0443,-0.0672,-0.0673,-0.1034,-0.1037,-0.104]}],[{"header":{"parameterUnit":"m.s-1","parameterCategory":2,"la1":30.2991,"la2":30.254,"lo1":-89.0895,"lo2":-89.0444,"dy":0.0017,"dx":0.0017,"nx":28,"ny":28,"refTime":"2024-04-24T09:00:00:Z","depth":"2","parameterNumber":2,"parameterNumberName":"U-component_of_CURRENTS"},"data":[0,0,0,0,0,0,0,0,0,0,0,0,0,0,0,0,0,0,0,0,0,0,0,0,0,0,0,0,0,0,0,0,0,0,0,0,0,0,0,0,0,0,0,0,0,0,0,0,0,0,0,0,0,0,0,0,0,0,0.2801,0.2801,0,0.2826,0.2826,0.2826,0.2822,0.2822,0.2822,0.2822,0.2846,0.2847,0.2847,0,0,0,0,0,0,0,0,0,0,0,0,0,0.2766,0.2766,0.2801,0.2801,0.2802,0.2826,0.2826,0.2826,0.2822,0.2822,0.2822,0.2822,0.2846,0.2847,0.2848,0,0,0,0,0,0,0,0,0,0,0,0,0,0.2781,0.2766,0.28,0.2806,0.2807,0.2826,0.2826,0.2826,0.2822,0.2822,0.2822,0.2822,0.2845,0.2847,0.2848,0.2857,0,0,0.2851,0.2851,0,0,0,0,0,0,0,0,0.278,0.2782,0.2804,0.2805,0.2806,0.2824,0.2822,0.2837,0.2822,0.2813,0.2822,0.2822,0.2841,0.2842,0.2842,0.2858,0.2859,0.2851,0.2852,0.2852,0.2853,0,0,0,0,0,0,0,0.2779,0.2781,0.2807,0.2805,0.2806,0.2812,0.2814,0.2825,0.2824,0.2813,0.2814,0.2822,0.2841,0.2841,0.2843,0.286,0.2851,0.2852,0.2853,0.2853,0.2924,0.2925,0,0,0,0,0,0,0.2783,0.278,0.2806,0.2808,0.2797,0.2813,0.2815,0.2815,0.2824,0.2827,0.2823,0.2822,0.2839,0.2842,0.2844,0.2908,0.2852,0.2853,0.2854,0.2923,0.2924,0.2926,0,0,0,0,0,0,0.2782,0.2784,0.2805,0.2798,0.2801,0.2814,0.2815,0.2816,0.2835,0.2832,0.2833,0.2843,0.2839,0.2842,0.2863,0.2907,0.2854,0.2855,0.2921,0.2923,0.2925,0.3003,0,0,0,0,0,0,0.278,0.2784,0.279,0.2798,0.2802,0.2831,0.2815,0.2817,0.2841,0.2841,0.285,0.285,0.284,0.2861,0.2864,0.2908,0.2856,0.292,0.2922,0.2924,0.2999,0.3008,0.3015,0,0,0,0,0,0.2779,0.2789,0.279,0.2794,0.2808,0.2832,0.2835,0.2841,0.2842,0.2856,0.2856,0.2851,0.2878,0.2863,0.2866,0.2911,0.2919,0.2922,0.2924,0.2996,0.3006,0.3015,0,0,0,0,0,0,0.2779,0.279,0.2791,0.2805,0.2824,0.2833,0.2849,0.2856,0.2867,0.287,0.2863,0.2864,0.2903,0.2891,0.2874,0.2936,0.29,0.2903,0.2953,0.2963,0.2971,0.2993,0.2857,0,0,0,0,0,0.2782,0.2792,0.2807,0.2821,0.2832,0.2845,0.2858,0.2865,0.2876,0.2882,0.2883,0.2891,0.2914,0.2925,0.2934,0.2965,0.3003,0.2996,0.3004,0.301,0.303,0.3142,0.3164,0.2935,0.2935,0.2935,0,0,0.2787,0.2796,0.2802,0.2823,0.2836,0.286,0.2852,0.2881,0.2907,0.2883,0.2913,0.2921,0.2929,0.2964,0.2981,0.2961,0.3091,0.3014,0.302,0.3036,0.3148,0.3171,0.3191,0.2937,0.2936,0.2936,0,0,0.2802,0.2811,0.2824,0.2842,0.2871,0.2884,0.2899,0.2917,0.2932,0.2963,0.2959,0.2991,0.3009,0.3028,0.3041,0.3098,0.3132,0.3104,0.3163,0.3272,0.3293,0.3312,0.3376,0.34,0.3105,0.3106,0.3106,0,0.2805,0.2825,0.2835,0.2855,0.2877,0.29,0.2927,0.295,0.2972,0.3002,0.2982,0.3052,0.3045,0.3121,0.3132,0.3121,0.3179,0.3128,0.3287,0.3306,0.3324,0.3386,0.3411,0.311,0.3109,0.3109,0.3108,0,0.2833,0.285,0.2865,0.2895,0.2921,0.2952,0.2984,0.3016,0.3039,0.3069,0.3145,0.3146,0.3195,0.3198,0.318,0.3303,0.3301,0.3289,0.327,0.3353,0.3411,0.3436,0.3116,0.3114,0.3113,0.3112,0,0,0.2826,0.2873,0.2876,0.2898,0.2946,0.297,0.3026,0.3091,0.3148,0.3183,0.3272,0.33,0.3324,0.334,0.3339,0.3415,0.3568,0.341,0.3414,0.3486,0.3805,0.3654,0.3666,0.3605,0.361,0.3614,0.3791,0,0.2844,0.2882,0.2908,0.2957,0.2982,0.3026,0.3083,0.3147,0.3201,0.329,0.3344,0.3425,0.3376,0.3419,0.3492,0.3561,0.3641,0.352,0.3704,0.3708,0.3575,0.3693,0.3364,0.3482,0.3816,0.382,0.3823,0,0.2855,0.2884,0.2926,0.2994,0.3013,0.3055,0.3157,0.3213,0.3343,0.3394,0.3493,0.3545,0.3668,0.3614,0.3797,0.3733,0.378,0.3818,0.3827,0.3679,0.3605,0.3455,0.3515,0.3865,0.3862,0.3859,0.3856,0,0.2836,0.2893,0.2929,0.295,0.3034,0.3079,0.3141,0.3251,0.3304,0.3485,0.3567,0.3708,0.3811,0.3907,0.3964,0.3919,0.4161,0.4106,0.4013,0.4001,0.375,0.3707,0.4254,0.4254,0.4254,0.4253,0.4253,0,0.2832,0.2862,0.2927,0.295,0.3016,0.3083,0.3177,0.3259,0.3386,0.3489,0.3631,0.3736,0.3903,0.4035,0.4057,0.4115,0.4246,0.4057,0.4057,0.3761,0.3719,0.4066,0.4041,0.426,0.4258,0.4257,0.4256,0,0.279,0.2835,0.2884,0.2976,0.3003,0.3056,0.3165,0.3223,0.3381,0.3527,0.3601,0.3815,0.3991,0.4104,0.428,0.4232,0.4294,0.4276,0.3892,0.3841,0.4036,0.4014,0.4207,0.4204,0.4201,0.4198,0.4196,0,0.277,0.2787,0.2876,0.2905,0.2946,0.3028,0.3071,0.32,0.3269,0.3549,0.3616,0.3855,0.3958,0.4147,0.4132,0.4169,0.4263,0.3888,0.3719,0.4061,0.4043,0.4024,0.4006,0.3423,0.3415,0.3408,0.3403,0,0.2734,0.2768,0.2805,0.285,0.2896,0.294,0.3032,0.3071,0.3261,0.3383,0.3563,0.3671,0.3865,0.3756,0.3819,0.3786,0.3847,0.3747,0.4278,0.3459,0.3329,0.3307,0.3315,0.3343,0.3349,0.3353,0.3356,0.3359,0.2701,0.2714,0.2755,0.2784,0.2826,0.2844,0.2863,0.2941,0.301,0.316,0.3362,0.3425,0.3491,0.3387,0.3298,0.3252,0.3502,0.3356,0.3375,0.3401,0.3252,0.3121,0.3068,0.3072,0.3076,0.3079,0.3082,0,0.2645,0.2669,0.2683,0.2702,0.2678,0.2765,0.2816,0.2757,0.2782,0.2929,0.3025,0.2811,0.2745,0.282,0.2638,0.2632,0.2593,0.2538,0.246,0.2522,0.2577,0.2383,0.1971,0.1967,0.1964,0.196,0,0,0.2621,0.2597,0.2585,0.2528,0.2568,0.2511,0.2535,0.244,0.2461,0.2403,0.2432,0.2645,0.2744,0.2325,0.2261,0.2087,0.2287,0.2006,0.2903,0.2874,0.2924,0.3061,0.2835,0,0,0,0,0]},{"header":{"parameterUnit":"m.s-1","parameterCategory":2,"la1":30.2991,"la2":30.254,"lo1":-89.0895,"lo2":-89.0444,"dy":0.0017,"dx":0.0017,"nx":28,"ny":28,"refTime":"2024-04-24T09:00:00:Z","depth":"2","parameterNumber":3,"parameterNumberName":"V-component_of_CURRENTS"},"data":[0,0,0,0,0,0,0,0,0,0,0,0,0,0,0,0,0,0,0,0,0,0,0,0,0,0,0,0,0,0,0,0,0,0,0,0,0,0,0,0,0,0,0,0,0,0,0,0,0,0,0,0,0,0,0,0,0,0,0.0128,0.0128,0,0.0071,0.007,0.0069,0.0031,0.0031,0.0031,0.003,-0.0041,-0.0043,-0.0044,0,0,0,0,0,0,0,0,0,0,0,0,0,0.0155,0.0154,0.0128,0.0128,0.0127,0.0071,0.007,0.0069,0.0031,0.0031,0.0031,0.003,-0.004,-0.0042,-0.0044,0,0,0,0,0,0,0,0,0,0,0,0,0,0.0124,0.0154,0.0128,0.0102,0.0099,0.0071,0.007,0.0069,0.0031,0.0031,0.003,0.003,-0.004,-0.0042,-0.0045,-0.0057,0,0,-0.0053,-0.0054,0,0,0,0,0,0,0,0,0.0126,0.0123,0.0107,0.0104,0.0101,0.0059,0.0053,0.0027,0.0031,0.0056,0.003,0.003,-0.0008,-0.0013,-0.0025,-0.006,-0.0063,-0.0053,-0.0055,-0.0056,-0.0056,0,0,0,0,0,0,0,0.0128,0.0125,0.0104,0.0106,0.0102,0.0076,0.0072,0.0047,0.0025,0.0053,0.0051,0.0046,-0.001,-0.0022,-0.0027,-0.0064,-0.0053,-0.0055,-0.0057,-0.0058,-0.0101,-0.01,0,0,0,0,0,0,0.014,0.0127,0.0106,0.0103,0.0114,0.0076,0.0071,0.0071,0.0025,0.0018,0.0047,0.0045,-0.0018,-0.0024,-0.003,-0.0029,-0.0056,-0.0058,-0.006,-0.0101,-0.0101,-0.01,0,0,0,0,0,0,0.0141,0.0139,0.0108,0.0114,0.0108,0.0076,0.0077,0.007,0.0063,0.002,0.0013,0.0046,-0.0018,-0.0026,-0.0043,-0.0033,-0.0059,-0.0062,-0.0102,-0.0101,-0.0101,-0.0039,0,0,0,0,0,0,0.0142,0.014,0.0144,0.0115,0.0109,0.0102,0.0077,0.007,0.0061,0.0058,0.0017,0.001,-0.0019,-0.0039,-0.0046,-0.0037,-0.0064,-0.0102,-0.0102,-0.0101,-0.0042,-0.0036,-0.0032,0,0,0,0,0,0.0143,0.0154,0.0144,0.0142,0.0116,0.0103,0.0098,0.0072,0.0061,0.0063,0.0035,0.0012,-0.0039,-0.0041,-0.0049,-0.004,-0.0103,-0.0102,-0.0101,-0.0044,-0.0038,-0.0032,0,0,0,0,0,0,0.0164,0.0151,0.0139,0.0144,0.0129,0.0097,0.0096,0.008,0.0059,0.0056,0.0016,0.0007,-0.0006,-0.003,-0.0031,-0.005,-0.0074,-0.0075,-0.0028,-0.0022,-0.0018,0.0006,-0.0066,0,0,0,0,0,0.0172,0.0179,0.0157,0.0161,0.0157,0.0128,0.0119,0.0104,0.0081,0.0072,0.0044,0.0015,-0.0009,-0.002,-0.0047,-0.0055,-0.0071,-0.0055,-0.005,-0.0045,-0.0032,-0.0044,-0.0038,-0.0097,-0.0097,-0.0097,0,0,0.018,0.0174,0.0177,0.0166,0.0151,0.0154,0.0122,0.0117,0.0119,0.0068,0.0063,0.0029,-0.0009,-0.002,-0.0028,-0.0037,-0.0039,-0.0044,-0.004,-0.0029,-0.0042,-0.0036,-0.0031,-0.0096,-0.0096,-0.0097,0,0,0.0204,0.0197,0.021,0.0204,0.0191,0.0175,0.0179,0.0154,0.0144,0.0132,0.0096,0.0075,0.0037,0.0016,-0.0002,0.0016,-0.0015,0.0005,0.0051,0.004,0.0045,0.0049,0.0032,0.0035,0.001,0.0011,0.0011,0,0.0213,0.023,0.0211,0.0223,0.0226,0.0191,0.0208,0.0192,0.0164,0.0164,0.014,0.0094,0.0056,0.005,0.0051,0.0028,0.0016,0.0033,0.0047,0.0051,0.0055,0.0036,0.0038,0.0014,0.0013,0.0013,0.0013,0,0.0248,0.026,0.0269,0.0275,0.0274,0.0284,0.0264,0.0263,0.0243,0.0224,0.0212,0.0162,0.014,0.0118,0.0087,0.0094,0.0075,0.0053,0.0036,0.0064,0.0043,0.0044,0.0018,0.0017,0.0016,0.0015,0,0,0.0277,0.0292,0.0296,0.0315,0.0308,0.0316,0.0323,0.0325,0.0342,0.03,0.0323,0.0261,0.0236,0.0216,0.0175,0.0158,0.0157,0.0121,0.0119,0.0112,0.0132,0.0083,0.0079,0.014,0.0141,0.0141,0.0107,0,0.0312,0.0354,0.0349,0.039,0.0412,0.0395,0.0412,0.0406,0.039,0.0402,0.035,0.035,0.0273,0.0275,0.0242,0.019,0.0163,0.0169,0.01,0.0099,0.0057,0.0079,0.0104,0.0073,0.0107,0.0107,0.0108,0,0.0354,0.0378,0.0429,0.0466,0.0475,0.0495,0.0529,0.054,0.0534,0.0525,0.0505,0.0466,0.0441,0.0375,0.0292,0.0302,0.0223,0.0168,0.0165,0.0102,0.0051,0.005,0.0073,0.0108,0.0108,0.0108,0.0108,0,0.04,0.0437,0.0487,0.0498,0.0529,0.0557,0.0577,0.0581,0.0614,0.0617,0.0648,0.0585,0.0595,0.0483,0.0354,0.0333,0.0261,0.0218,0.0093,0.0089,0.0088,0.0082,0.0153,0.0153,0.0154,0.0154,0.0154,0,0.0447,0.0486,0.0518,0.0547,0.062,0.0619,0.0693,0.0699,0.0733,0.0808,0.0727,0.0778,0.0627,0.056,0.0407,0.026,0.0299,0.0111,0.0081,0.0108,0.0104,0.0116,0.0112,0.0152,0.0153,0.0153,0.0153,0,0.0487,0.0508,0.0571,0.0621,0.0646,0.0701,0.0782,0.0834,0.0857,0.0959,0.0978,0.0944,0.0862,0.0676,0.0516,0.0356,0.0199,0.0128,0.0164,0.0138,0.0019,0.0019,-0.0003,-0.0004,-0.0006,-0.0007,-0.0009,0,0.0513,0.0548,0.0628,0.0683,0.0713,0.0793,0.0857,0.0896,0.0972,0.1075,0.1145,0.1097,0.1082,0.0802,0.0512,0.0232,0.0192,0.0066,0.0015,0.0032,0.0006,0.0008,0.001,0.004,0.0039,0.0039,0.0038,0,0.0562,0.059,0.0643,0.0753,0.0836,0.0939,0.1043,0.1125,0.1212,0.1303,0.1426,0.1421,0.1159,0.0891,0.0486,0.0289,0.0106,0.0044,0.0079,0.0065,0.0066,0.0042,0.0043,0.0033,0.0034,0.0034,0.0034,0.0035,0.0601,0.0649,0.0728,0.0836,0.0939,0.1093,0.1202,0.1324,0.1478,0.163,0.1617,0.1605,0.1285,0.0761,0.0428,0.0067,0.0074,-0.0054,-0.0049,-0.0045,-0.0044,-0.0047,-0.01,-0.0101,-0.0101,-0.0101,-0.0101,0,0.0651,0.0712,0.081,0.0954,0.1078,0.1131,0.1333,0.1437,0.164,0.1742,0.1817,0.151,0.1197,0.0818,0.0289,-0.003,-0.0047,-0.0135,-0.0074,-0.0068,-0.0063,-0.0061,-0.0123,-0.0124,-0.0125,-0.0125,0,0,0.0686,0.0781,0.0834,0.1052,0.1161,0.1342,0.1473,0.163,0.1733,0.1824,0.1814,0.1736,0.1293,0.0907,0.0477,0.0185,0.0129,0.0117,0.0166,0.0294,0.0303,0.0011,0.0024,0,0,0,0,0]}],[{"header":{"parameterUnit":"m.s-1","parameterCategory":2,"la1":30.2991,"la2":30.254,"lo1":-89.0895,"lo2":-89.0444,"dy":0.0017,"dx":0.0017,"nx":28,"ny":28,"refTime":"2024-04-24T09:00:00:Z","depth":"4","parameterNumber":2,"parameterNumberName":"U-component_of_CURRENTS"},"data":[0,0,0,0,0,0,0,0,0,0,0,0,0,0,0,0,0,0,0,0,0,0,0,0,0,0,0,0,0,0,0,0,0,0,0,0,0,0,0,0,0,0,0,0,0,0,0,0,0,0,0,0,0,0,0,0,0,0,0.1733,0.1734,0,0.1782,0.1782,0.1783,0.1834,0.1835,0.1836,0.1837,0.1891,0.1891,0.1892,0,0,0,0,0,0,0,0,0,0,0,0,0,0.1681,0.1682,0.1733,0.1734,0.1735,0.1782,0.1782,0.1783,0.1834,0.1835,0.1836,0.1837,0.1891,0.1891,0.1892,0,0,0,0,0,0,0,0,0,0,0,0,0,0.1712,0.1682,0.1733,0.1768,0.1772,0.1782,0.1783,0.1783,0.1834,0.1835,0.1836,0.1838,0.189,0.1891,0.1892,0.1868,0,0,0.1894,0.1895,0,0,0,0,0,0,0,0,0.171,0.1713,0.1762,0.1766,0.177,0.1806,0.1784,0.1813,0.1833,0.1807,0.1837,0.1838,0.1864,0.1867,0.1869,0.187,0.1873,0.1894,0.1895,0.1895,0.1896,0,0,0,0,0,0,0,0.1708,0.1711,0.175,0.1763,0.1768,0.1781,0.1786,0.179,0.1824,0.1809,0.1814,0.1824,0.1866,0.1868,0.187,0.1873,0.1894,0.1895,0.1896,0.1896,0.1976,0.1977,0,0,0,0,0,0,0.1706,0.1709,0.1748,0.1751,0.1746,0.1781,0.1787,0.1791,0.1824,0.1832,0.1822,0.1826,0.1866,0.1869,0.1872,0.195,0.1895,0.1896,0.1897,0.1974,0.1976,0.1978,0,0,0,0,0,0,0.1704,0.1708,0.1746,0.1734,0.174,0.178,0.1784,0.1791,0.1834,0.1835,0.1842,0.1863,0.1867,0.1871,0.1915,0.1948,0.1896,0.1897,0.1972,0.1975,0.1977,0.2037,0,0,0,0,0,0,0.1702,0.1707,0.1728,0.1734,0.1741,0.1776,0.1783,0.1791,0.1836,0.1842,0.1871,0.1875,0.1868,0.1914,0.1916,0.1948,0.1898,0.197,0.1973,0.1976,0.2033,0.2041,0.2049,0,0,0,0,0,0.17,0.1715,0.1728,0.1734,0.1761,0.1778,0.1783,0.1814,0.1837,0.1857,0.1886,0.1876,0.1935,0.1916,0.1918,0.1951,0.1969,0.1973,0.1976,0.203,0.204,0.2048,0,0,0,0,0,0,0.1701,0.1722,0.1736,0.1758,0.1779,0.1788,0.1818,0.1835,0.1872,0.1892,0.1894,0.19,0.195,0.1944,0.1923,0.1985,0.1951,0.1956,0.1992,0.2001,0.2009,0.2023,0.1898,0,0,0,0,0,0.171,0.1733,0.1747,0.177,0.1785,0.1809,0.1828,0.1848,0.1873,0.1893,0.1916,0.194,0.1958,0.1977,0.1988,0.202,0.203,0.2045,0.2052,0.2059,0.2073,0.2127,0.2141,0.199,0.199,0.199,0,0,0.1719,0.1734,0.1749,0.1774,0.1797,0.1817,0.1825,0.1865,0.1892,0.1891,0.1952,0.1969,0.1973,0.2012,0.2034,0.2017,0.2105,0.2064,0.2069,0.208,0.2132,0.2147,0.216,0.1993,0.1992,0.1992,0,0,0.1733,0.1761,0.1782,0.1802,0.1842,0.1853,0.1873,0.1906,0.1938,0.1982,0.1996,0.2039,0.2064,0.208,0.2086,0.2143,0.2143,0.2152,0.2204,0.2256,0.2269,0.228,0.2302,0.2315,0.2157,0.2157,0.2157,0,0.1748,0.1767,0.1792,0.1814,0.1837,0.1873,0.1896,0.1927,0.1975,0.2008,0.2014,0.2085,0.2092,0.214,0.2168,0.2161,0.2186,0.2165,0.2267,0.2278,0.2289,0.2308,0.2322,0.216,0.216,0.2159,0.2159,0,0.1761,0.1793,0.181,0.1849,0.1875,0.1905,0.1942,0.1993,0.2036,0.2063,0.2138,0.2156,0.2203,0.2211,0.2208,0.2291,0.2282,0.2269,0.2242,0.2308,0.2324,0.2337,0.2165,0.2164,0.2163,0.2162,0,0,0.1748,0.1808,0.1818,0.1839,0.1898,0.1911,0.198,0.2035,0.2086,0.2146,0.2206,0.2256,0.2291,0.2302,0.2313,0.236,0.2453,0.2361,0.2362,0.2381,0.2565,0.2399,0.2396,0.247,0.2473,0.2476,0.2541,0,0.1754,0.1792,0.1826,0.187,0.1889,0.1951,0.2001,0.2065,0.2124,0.2194,0.2247,0.2305,0.2317,0.2351,0.2408,0.2453,0.2494,0.2436,0.25,0.2502,0.2345,0.2408,0.2485,0.2551,0.2554,0.2556,0.2557,0,0.1749,0.1774,0.1814,0.1875,0.1892,0.1935,0.2026,0.2078,0.2187,0.2238,0.2326,0.2365,0.2469,0.2448,0.2578,0.2551,0.2571,0.2588,0.259,0.2425,0.236,0.2475,0.2581,0.2579,0.2577,0.2576,0.2574,0,0.1699,0.1765,0.1795,0.1816,0.1891,0.1943,0.2003,0.2106,0.2154,0.2286,0.2334,0.2451,0.2526,0.2591,0.2655,0.2637,0.2768,0.2733,0.2591,0.2579,0.2682,0.2669,0.2802,0.2802,0.2802,0.2802,0.2802,0,0.167,0.1699,0.1785,0.1797,0.1846,0.1923,0.1999,0.2078,0.2187,0.2244,0.2366,0.2422,0.2576,0.266,0.2689,0.2691,0.2804,0.2612,0.2593,0.2702,0.2692,0.269,0.2676,0.2804,0.2804,0.2803,0.2803,0,0.16,0.1663,0.1696,0.1786,0.1823,0.1864,0.1985,0.202,0.2161,0.2243,0.229,0.2451,0.2576,0.2674,0.2788,0.272,0.2734,0.2692,0.2807,0.2791,0.2497,0.2485,0.2538,0.2533,0.2529,0.2525,0.2522,0,0.1559,0.1571,0.1665,0.169,0.174,0.1821,0.1857,0.1993,0.2031,0.2233,0.2243,0.2422,0.2516,0.2549,0.2668,0.2704,0.2668,0.2639,0.2561,0.2498,0.2475,0.247,0.2465,0.2515,0.2514,0.2513,0.2511,0,0.1462,0.1515,0.1541,0.1594,0.1641,0.1674,0.1756,0.177,0.1925,0.2072,0.2157,0.2228,0.2358,0.2457,0.251,0.2523,0.2643,0.2592,0.26,0.2527,0.2471,0.2451,0.2451,0.2496,0.2499,0.25,0.2501,0,0.1392,0.138,0.1426,0.1468,0.1519,0.1507,0.1573,0.1627,0.169,0.1918,0.1952,0.2153,0.2339,0.2362,0.2408,0.2421,0.2377,0.2274,0.2298,0.2316,0.2214,0.2108,0.2016,0,0,0,0,0,0.1294,0.1265,0.1288,0.1301,0.1352,0.1392,0.1478,0.1547,0.1712,0.1714,0.1831,0.1942,0.2046,0.215,0.2122,0.2294,0.2372,0.2246,0.2261,0.2413,0.243,0.2331,0,0,0,0,0,0,0.1226,0.1226,0.1229,0.1164,0.1162,0.1178,0.1241,0.1353,0.1373,0.1575,0.1652,0.181,0.1949,0.2057,0.2087,0.2115,0.2076,0.2376,0.237,0.2403,0.2419,0.2433,0.2336,0,0,0,0,0]},{"header":{"parameterUnit":"m.s-1","parameterCategory":2,"la1":30.2991,"la2":30.254,"lo1":-89.0895,"lo2":-89.0444,"dy":0.0017,"dx":0.0017,"nx":28,"ny":28,"refTime":"2024-04-24T09:00:00:Z","depth":"4","parameterNumber":3,"parameterNumberName":"V-component_of_CURRENTS"},"data":[0,0,0,0,0,0,0,0,0,0,0,0,0,0,0,0,0,0,0,0,0,0,0,0,0,0,0,0,0,0,0,0,0,0,0,0,0,0,0,0,0,0,0,0,0,0,0,0,0,0,0,0,0,0,0,0,0,0,0.0095,0.0095,0,0.006,0.006,0.0059,0.0038,0.0038,0.0038,0.0037,-0.0007,-0.0008,-0.0009,0,0,0,0,0,0,0,0,0,0,0,0,0,0.0109,0.0109,0.0095,0.0095,0.0094,0.006,0.006,0.0059,0.0038,0.0038,0.0038,0.0037,-0.0007,-0.0008,-0.001,0,0,0,0,0,0,0,0,0,0,0,0,0,0.0092,0.0109,0.0095,0.0079,0.0078,0.006,0.006,0.0059,0.0038,0.0038,0.0037,0.0037,-0.0007,-0.0008,-0.001,-0.0017,0,0,-0.0015,-0.0015,0,0,0,0,0,0,0,0,0.0093,0.0091,0.0082,0.008,0.0079,0.0053,0.0048,0.0033,0.0038,0.0053,0.0037,0.0037,0.0012,0.0009,0.0003,-0.0019,-0.0021,-0.0015,-0.0016,-0.0017,-0.0017,0,0,0,0,0,0,0,0.0094,0.0092,0.0081,0.0082,0.0079,0.0063,0.006,0.0045,0.0033,0.0051,0.005,0.0046,0.0011,0.0004,0.0002,-0.0022,-0.0015,-0.0016,-0.0017,-0.0018,-0.0044,-0.0043,0,0,0,0,0,0,0.0101,0.0094,0.0082,0.008,0.0086,0.0063,0.006,0.0061,0.0034,0.003,0.0046,0.0045,0.0007,0.0003,-0.0,0.0001,-0.0017,-0.0018,-0.0019,-0.0044,-0.0043,-0.0043,0,0,0,0,0,0,0.0101,0.01,0.0083,0.0086,0.0082,0.0063,0.0064,0.0061,0.0057,0.003,0.0026,0.0047,0.0007,0.0002,-0.0008,-0.0001,-0.0019,-0.002,-0.0044,-0.0044,-0.0043,-0.0003,0,0,0,0,0,0,0.0102,0.0101,0.0104,0.0086,0.0083,0.0081,0.0064,0.006,0.0055,0.0054,0.0029,0.0025,0.0007,-0.0005,-0.001,-0.0004,-0.0022,-0.0045,-0.0044,-0.0043,-0.0005,-0.0002,0.0001,0,0,0,0,0,0.0102,0.011,0.0105,0.0103,0.0089,0.0081,0.0078,0.0063,0.0056,0.0058,0.0041,0.0026,-0.0005,-0.0006,-0.0012,-0.0006,-0.0045,-0.0044,-0.0043,-0.0006,-0.0002,0.0001,0,0,0,0,0,0,0.0115,0.0108,0.0102,0.0106,0.0097,0.0078,0.0078,0.0067,0.0056,0.0054,0.0029,0.0023,0.0016,0.0,-0.0001,-0.0011,-0.0027,-0.0027,0.0003,0.0007,0.001,0.0022,-0.0023,0,0,0,0,0,0.0121,0.0128,0.0114,0.0118,0.0115,0.0098,0.0093,0.0083,0.007,0.0064,0.0047,0.0029,0.0014,0.0008,-0.0009,-0.0014,-0.0039,-0.0013,-0.001,-0.0007,-0.0,-0.0034,-0.0034,-0.0041,-0.0041,-0.0041,0,0,0.0127,0.0124,0.0127,0.0121,0.0113,0.0115,0.0095,0.0092,0.0095,0.0061,0.0061,0.0039,0.0015,0.0008,0.0004,-0.0002,-0.002,-0.0006,-0.0003,0.0002,-0.0034,-0.0033,-0.0033,-0.004,-0.004,-0.0041,0,0,0.0142,0.014,0.015,0.0148,0.014,0.013,0.0133,0.0117,0.0113,0.0107,0.0084,0.0068,0.0047,0.0031,0.002,0.0032,-0.0003,0.0027,0.0055,0.0021,0.0022,0.0022,-0.0016,-0.002,0.003,0.003,0.003,0,0.0149,0.0162,0.0151,0.016,0.0164,0.0141,0.0154,0.0144,0.0128,0.0127,0.0113,0.008,0.0058,0.005,0.0053,0.004,0.0013,0.0042,0.0026,0.0025,0.0024,-0.0014,-0.0019,0.0032,0.0032,0.0032,0.0032,0,0.0172,0.0183,0.0189,0.0197,0.0198,0.0205,0.0194,0.0194,0.0183,0.0169,0.0157,0.0124,0.0107,0.0095,0.0077,0.0066,0.0045,0.0032,0.0016,0.0027,-0.0014,-0.002,0.0035,0.0035,0.0034,0.0033,0,0,0.0188,0.0204,0.0207,0.0224,0.0221,0.0229,0.0235,0.0236,0.0247,0.0217,0.0224,0.0187,0.0165,0.0152,0.0124,0.0096,0.0062,0.0067,0.0064,0.0031,-0.0017,-0.0023,-0.003,0.0044,0.0043,0.0043,-0.0046,0,0.021,0.0242,0.0242,0.0276,0.0293,0.0284,0.0299,0.0295,0.0281,0.028,0.0238,0.023,0.0188,0.0184,0.0146,0.0088,0.0051,0.0087,-0.0024,-0.0027,-0.0033,-0.0035,0.0041,-0.005,-0.0052,-0.0053,-0.0053,0,0.0235,0.0255,0.0293,0.033,0.0338,0.0356,0.0381,0.0392,0.0376,0.0366,0.0338,0.0298,0.0257,0.0221,0.0115,0.014,0.0067,0.0013,0.0008,-0.0013,-0.0043,-0.0063,-0.0064,-0.0063,-0.0062,-0.0062,-0.0061,0,0.026,0.0296,0.0333,0.0343,0.0373,0.0398,0.0419,0.0419,0.0446,0.0423,0.043,0.0358,0.034,0.0235,0.0116,0.0115,-0.0008,-0.0025,-0.0104,-0.0106,-0.0092,-0.0091,-0.0105,-0.0105,-0.0105,-0.0105,-0.0104,0,0.0286,0.0318,0.0353,0.0373,0.0436,0.0442,0.0502,0.0507,0.0524,0.0563,0.0484,0.0486,0.0344,0.0254,0.0132,-0.0003,-0.0002,-0.0099,-0.0127,-0.0074,-0.007,-0.0097,-0.0095,-0.0108,-0.0107,-0.0107,-0.0106,0,0.0304,0.0325,0.0376,0.0424,0.0451,0.0498,0.0579,0.0616,0.0622,0.0668,0.0668,0.0587,0.0468,0.0308,0.0138,0.0035,-0.0105,-0.0156,-0.009,-0.0113,-0.0187,-0.0182,-0.0249,-0.025,-0.0251,-0.0251,-0.0252,0,0.0315,0.0341,0.0418,0.047,0.0499,0.0575,0.0632,0.0667,0.0713,0.0732,0.0756,0.0657,0.0581,0.0337,0.0156,-0.009,-0.0124,-0.0204,-0.0195,-0.018,-0.0201,-0.0194,-0.0188,-0.0253,-0.0253,-0.0254,-0.0254,0,0.0339,0.0367,0.0414,0.0516,0.0591,0.0679,0.0762,0.0802,0.0847,0.085,0.0836,0.0705,0.0568,0.0356,0.016,-0.0016,-0.0156,-0.0212,-0.0212,-0.0204,-0.0186,-0.0204,-0.0197,-0.0256,-0.0256,-0.0256,-0.0256,0,0.0363,0.0404,0.0475,0.0565,0.0664,0.0758,0.0799,0.0858,0.0903,0.0916,0.0908,0.0752,0.0662,0.0394,0.0215,0.0037,-0.0008,-0.0065,-0.0073,-0.0072,0.0,0.0051,0.0032,0,0,0,0,0,0.0385,0.0438,0.0524,0.0626,0.0718,0.0779,0.0877,0.0907,0.0945,0.0949,0.0936,0.0807,0.0552,0.0433,0.0257,0.0181,-0.0055,-0.0034,-0.0128,-0.0271,-0.0268,-0.0214,0,0,0,0,0,0,0.0409,0.0485,0.0526,0.0657,0.0728,0.0839,0.0902,0.0929,0.0933,0.094,0.0806,0.0754,0.0497,0.0651,0.0249,0.0194,0.0109,-0.0153,-0.0157,-0.0273,-0.027,-0.0268,-0.0211,0,0,0,0,0]}]]